www.pogodaiklimat.ru
Время
и дата
11:51 27.05
12:51 27.05
13:25 27.05
13:51 27.05
14:51 27.05
15:51 27.05
16:51 27.05
17:51 27.05
18:51 27.05
19:51 27.05
20:51 27.05
21:51 27.05
22:16 27.05
22:51 27.05
23:51 27.05
23:59 27.05
00:30 28.05
00:51 28.05
01:06 28.05
01:51 28.05
02:51 28.05
03:33 28.05
03:51 28.05
04:21 28.05
04:51 28.05
05:51 28.05
06:51 28.05
07:51 28.05
08:51 28.05
09:25 28.05
09:38 28.05
09:51 28.05
10:51 28.05
11:51 28.05
12:51 28.05
13:51 28.05
14:51 28.05
15:51 28.05
16:51 28.05
17:51 28.05
18:51 28.05
19:51 28.05
20:51 28.05
21:51 28.05
22:51 28.05
23:51 28.05
00:51 29.05
01:51 29.05
Ветер
(напр.,м/с)
Видим. Явления Облачность Т
(С)
Тd
(С)
f
(%)
Тe
(С)
Тes
(С)
Комфортность P
(гПа)
Po
(гПа)
Тmin
(С)
Tmax
(С)
R
(мм)
R24
(мм)
S
(см)
Ю 2 16 км 8/8 510 м
[Ac]
+19.4 +14.4 73 +21 +23 комфорт 1009.1 965.9
ЮЗ 1 16 км 8/8 780 м
[Ac]
+21.1 +13.3 61 +23 +27 комфорт 1008.6 965.2 +16.1 +21.1 2.8
ЮЗ 2 16 км 8/8 930 м
[Ac]
+21.7 +13.9 61 +25 +27 комфорт 965.2
Ю 2 16 км 8/5 900 м
[Ac]
+22.2 +14.4 61 +25 +29 комфорт 1008.1 964.9
ЮЗ 2 16 км 8/8 1170 м
[Ac]
+22.2 +12.8 55 +25 +27 комфорт 1007.7 964.6
Ю 2 16 км 8/5 1230 м
[Ac]
+22.2 +12.8 55 +25 +28 комфорт 1007.6 964.2
Ю 2 16 км слабый дождь 10/5 1140 м
[Ac]
+21.1 +13.3 61 +23 +25 комфорт 1007.6 964.2
ЮЗ 1 16 км слабый дождь 10/8 990 м
[Ac]
+19.4 +15.6 79 +22 +22 комфорт 1007.7 964.2
З 1 16 км 10/8 930 м
[Ac]
+17.2 +15.6 90 +17 +17 1008.1 964.6 +17.2 +22.8 4.3
ЮЗ 1 16 км 10/2 1050 м
[Ac Ci]
+17.2 +15.6 90 +18 +18 1008.3 964.9
З 1 16 км 8/5 1200 м
[Ac Ci]
+16.1 +13.9 87 +16 +16 1008.7 965.2
ЮЗ 1 16 км 8/5 1500 м
[Ac Ci]
+15.6 +13.9 90 +15 +15 1009.0 965.5
штиль 0 16 км 10/8 570 м
[Ac]
+15.6 +13.9 90 +15 +15 965.5
ЮЗ 1 16 км 8/8 480 м
[Ac]
+15.6 +13.9 90 +15 +15 1008.8 965.2
ЮЗ 1 16 км 10/8 360 м
[Ac]
+15.0 +13.9 93 +14 +14 1009.2 965.5
ЮЗ 2 16 км 10/8 360 м
[Ac]
+15.0 +13.3 90 +14 +14 965.5
ЮЗ 1 16 км 8/5 420 м
[Ac]
+14.4 +13.3 93 +13 +13 965.5
ЮЗ 1 16 км 8/5 450 м
[Ac]
+14.4 +12.8 90 +13 +13 1009.0 965.5 +14.4 +17.2
ЮЗ 1 16 км 10/10 270 м +13.9 +13.3 96 +13 +13 965.5
ЮЗ 1 16 км 10/10 270 м +13.9 +12.8 93 +13 +13 1008.8 965.2
З 1 16 км 10/10 240 м +13.9 +12.8 93 +13 +13 1008.6 965.2
ЮЗ 1 16 км 10/10 120 м +13.9 +12.8 93 +13 +13 965.5
З 1 16 км 10/10 120 м +13.9 +12.8 93 +13 +13 1009.0 965.5
ЮЗ 1 16 км 10/10 180 м +13.9 +12.8 93 +13 +13 965.9
З 1 16 км слабый дождь 10/10 180 м +13.9 +12.8 93 +13 +13 1009.8 966.2
З 1 16 км 10/10 180 м +13.9 +13.3 96 +13 +13 1010.4 966.8
З 1 16 км 10/10 180 м +14.4 +13.9 97 +13 +13 1011.0 967.5 +13.9 +14.4 7.1
З 1 16 км 10/10 210 м +15.0 +13.9 93 +15 +15 1011.6 967.8
нст 1 16 км 10/10 300 м +16.7 +14.4 86 +17 +17 1012.3 968.5
З 2 3 км слабый дождь, дымка 10/10 360 м +16.1 +14.4 90 +15 +15 968.8
З 2 6 км слабый дождь, дымка 10/10 150 м +15.6 +15.0 96 +15 +15 969.1
СЗ 3 8 км слабый дождь, дымка 10/10 150 м +16.1 +15.0 93 +15 +15 1012.8 969.1 2.8
СЗ 2 16 км 8/8 240 м +18.3 +14.4 78 +18 +20 1013.0 969.4
СЗ 3 16 км 8/8 720 м +19.4 +12.8 66 +20 +21 1013.2 969.4
С 2 16 км 8/8 960 м +20.0 +12.2 61 +22 +24 комфорт 1013.1 969.4 +14.4 +21.1 3.0
СЗ 3 16 км 8/8 1050 м +21.1 +12.8 59 +23 +25 комфорт 1013.3 969.4
СЗ 3 16 км 10/10 1050 м +20.0 +12.2 61 +21 +21 комфорт 1013.2 969.4
СЗ 2 16 км 10/8 1050 м
[Ci]
+20.6 +12.2 59 +23 +23 комфорт 1013.4 969.8
СЗ 3 16 км 8/8 1050 м
[Ci]
+20.0 +11.7 59 +21 +22 комфорт 1013.8 970.1
СЗ 2 16 км 5/5 1500 м
[Ac Ci]
+20.0 +11.7 59 +22 +23 комфорт 1014.0 970.4
З 1 16 км 2/2 1800 м
[Ci]
+19.4 +11.1 59 +21 +22 комфорт 1014.5 970.7 +19.4 +21.1
штиль 0 16 км 2/2 1800 м
[Ci]
+17.8 +11.7 67 +18 +18 1014.9 971.1
СЗ 1 16 км 2/2 1800 м
[Ci]
+16.1 +11.7 75 +16 +16 1015.6 971.7
штиль 0 16 км 5/2 1800 м
[Ci]
+15.0 +11.7 81 +15 +15 1016.3 972.3
штиль 0 16 км 5/0 7500 м
[Ci]
+13.9 +12.2 89 +13 +13 1015.9 972.0
штиль 0 16 км 5/0 4500 м
[Ac Ci]
+13.9 +11.7 87 +13 +13 1016.0 972.0
штиль 0 16 км 5/2 1200 м
[Ac Ci]
+12.2 +10.6 90 +12 +12 1016.2 972.3 +12.2 +19.4
штиль 0 16 км 10/10 840 м +13.9 +11.7 87 +13 +13 1016.3 972.3
Местоположение метеостанции Pittsburgh International Airport: широта 40.4847 долгота -80.2144 высота над уровнем моря 367 м.
В архиве по умолчанию представлена погода в Питтсбурге за последние 1-2 суток. Обновление информации о фактической погоде в базе происходит ежечасно! Архивные данные за месяц целиком и за предыдущие месяцы Вы можете получить, выбрав интересующий диапазон дат из раскрывающегося списка и нажав кнопку "Ввод!".
Внимание! Архив погоды МЕТАР в базе сайта по станциям, не включенным в климатический монитор, хранится не более 60 дней. Нет смысла пытаться выбрать более раннюю дату.
*Определитесь, кто Вы:
Внимание! Время в таблицах - местное (без учета летнего времени). Для получения всемирного времени необходимо вычесть поправку, которая равна -5 ч.
Смотрите также архив погоды в соседних городах и на ближайших метеорологических станциях:
Партнеры нашего сайта:      
Пояснения к столбцам:
  • Ветер - указаны скорость ветра в м/с - средняя за 10 мин, порывы в срок и между сроками (в фигурных скобках) и направление, откуда дует ветер: С - северный,
  • СВ - северо-восточный, В - восточный, ЮВ - юго-восточный, Ю - южный, ЮЗ - юго-западный, З - западный, СЗ - северо-западный.
  • Видимость - горизонтальная дальность видимости в метрах или километрах. При видимости от 1 до 10 км при отсутствии осадков обычно наблюдается дымка, при ухудшении видимости до 1 км и менее - туман. В сухую погоду видимость может ухудшаться дымом, пылью или мглою.
  • Явления - указаны атмосферные явления, наблюдавшиеся в срок или в последний час перед сроком; фигурными скобками обозначены явления, наблюдавшиеся между сроками (за 1-3 часа до срока); квадратными скобками обозначены град или гололедные отложения с указанием их диаметра в мм.
  • Облачность - указаны через наклонную черту общая и нижняя облачность в баллах и высота нижней границы облаков в метрах; квадратными скобками обозначены формы облаков: Ci - перистые, Cs - перисто-слоистые, Cc - перисто-кучевые, Ac - высококучевые, As - высокослоистые, Sc - слоисто-кучевые, Ns - слоисто-дождевые, Cu - кучевые, Cb - кучево-дождевые. Подробнее классификацию облаков см. в Атласе облаков (PDF).
  • T - Температура воздуха - температура, измеренная на высоте 2 м над землей.
  • Td - Температура точки росы - температура, при понижении до которой содержащийся в воздухе водяной пар достигнет насыщения.
  • f - Относительная влажность воздуха - влажноcть воздуха, измеренная на высоте 2 м над землей.
  • Te - Эффективная температура - температура, которую ощущает одетый по сезону человек в тени. Характеристика душности погоды. При расчете учитывается влияние влажности воздуха и скорости ветра на теплоощущения человека.
  • Tes - Эффективная температура на солнце - температура, которую ощущает человек, с поправкой на солнечный нагрев. Характеристика знойности погоды. Зависит от высоты солнца над горизонтом, облачности и скорости ветра. Ночью, в пасмурную погоду, а также при ветре 12 м/с и более поправка равна нулю.
  • P - Атмосферное давление - приведенное к уровню моря атмосферное давление.
  • Po - Атмосферное давление - измеренное на уровне метеостанции атмосферное давление.
  • Tmin - Минимальная температура - минимум температуры воздуха на высоте 2 м над землей.
  • Tmax - Максимальная температура - максимум температуры воздуха на высоте 2 м над землей.
  • R - Количество осадков - Количество выпавших осадков за период времени, мм. При наведении курсора мыши на число - период времени, за который выпало указанное количество осадков.
  • R24 - Количество осадков - Количество выпавших осадков за 24 часа, мм.
  • S - Снежный покров - Высота снежного покрова, см. При наведении курсора мыши на число - состояние снежного покрова и степень покрытия местности в баллах.